FW4245 Weather Reports


time (UTC)temp
C
wind
direction
speed
KPH
gust
KPH
rain 1hr
cm
rain 24hr
cm
rain mn
cm
humidity
%
barometer
mb
20260504000037 14 296 0.0 0.0 0.00 0.00 0.00 46 1016.7
20260504000006 14 299 0.0 0.0 0.00 0.00 0.00 45 1016.3
20260503235538 15 296 0.0 0.0 0.00 0.00 0.00 44 1016.7
20260503235504 15 299 0.0 0.0 0.00 0.00 0.00 42 1016.3
20260503235038 15 296 0.0 1.6 0.00 0.00 0.00 42 1016.6
20260503235003 15 299 0.0 1.6 0.00 0.00 0.00 41 1016.3
20260503234535 15 296 0.0 1.6 0.00 0.00 0.00 40 1016.6
20260503234503 15 299 0.0 1.6 0.00 0.00 0.00 39 1016.3
20260503234035 16 296 0.0 1.6 0.00 0.00 0.00 40 1016.6
20260503234004 16 299 0.0 1.6 0.00 0.00 0.00 39 1016.3
20260503233537 16 296 0.0 1.6 0.00 0.00 0.00 38 1016.5
20260503233504 16 303 0.0 1.6 0.00 0.00 0.00 38 1016.1
20260503233034 17 300 0.0 1.6 0.00 0.00 0.00 38 1016.5
20260503233002 17 303 0.0 3.2 0.00 0.00 0.00 37 1016.2
20260503232534 17 292 0.0 3.2 0.00 0.00 0.00 38 1016.5
20260503232505 17 295 0.0 3.2 0.00 0.00 0.00 37 1016.2
20260503232034 17 292 0.0 6.4 0.00 0.00 0.00 37 1016.5
20260503232004 17 295 1.6 8.0 0.00 0.00 0.00 36 1016.2
20260503231534 17 311 0.0 8.0 0.00 0.00 0.00 37 1016.4
20260503231504 17 330 1.6 8.0 0.00 0.00 0.00 36 1016.1
20260503231034 17 302 1.6 4.8 0.00 0.00 0.00 36 1016.4
20260503231005 17 313 1.6 4.8 0.00 0.00 0.00 36 1016.0
20260503230534 17 277 1.6 6.4 0.00 0.00 0.00 35 1016.3
20260503230506 17 249 1.6 6.4 0.00 0.00 0.00 36 1016.0
20260503230034 17 297 1.6 8.0 0.00 0.00 0.00 36 1016.4
20260503230004 17 293 3.2 9.7 0.00 0.00 0.00 35 1016.1
20260503225533 17 353 1.6 12.9 0.00 0.00 0.00 37 1016.4
20260503225506 17 299 1.6 12.9 0.00 0.00 0.00 37 1016.1
20260503225033 17 289 6.4 12.9 0.00 0.00 0.00 35 1016.5
20260503225007 17 325 6.4 12.9 0.00 0.00 0.00 35 1016.1
20260503224532 17 308 6.4 12.9 0.00 0.00 0.00 36 1016.4
20260503224507 17 286 8.0 12.9 0.00 0.00 0.00 35 1016.1
20260503224032 17 314 4.8 12.9 0.00 0.00 0.00 35 1016.5
20260503224009 17 297 6.4 12.9 0.00 0.00 0.00 35 1016.1
20260503223531 17 296 6.4 12.9 0.00 0.00 0.00 35 1016.4
20260503223507 17 267 6.4 12.9 0.00 0.00 0.00 35 1016.0
20260503223031 16 356 3.2 16.1 0.00 0.00 0.00 36 1016.3
20260503223005 16 310 4.8 17.7 0.00 0.00 0.00 36 1016.1
20260503222530 16 287 9.7 17.7 0.00 0.00 0.00 35 1016.4
20260503222504 16 298 11.3 17.7 0.00 0.00 0.00 34 1016.0
20260503222032 17 308 8.0 17.7 0.00 0.00 0.00 36 1016.5
20260503222004 17 297 8.0 17.7 0.00 0.00 0.00 35 1016.0
20260503221529 17 292 6.4 17.7 0.00 0.00 0.00 36 1016.4
20260503221509 17 320 6.4 16.1 0.00 0.00 0.00 35 1015.9
20260503221029 17 292 8.0 16.1 0.00 0.00 0.00 34 1016.4
20260503221007 17 279 9.7 16.1 0.00 0.00 0.00 33 1015.9
20260503220533 17 330 1.6 12.9 0.00 0.00 0.00 35 1016.4
20260503220503 17 3 3.2 12.9 0.00 0.00 0.00 34 1015.9
20260503220029 17 327 3.2 12.9 0.00 0.00 0.00 36 1016.4
20260503220012 17 12 4.8 12.9 0.00 0.00 0.00 34 1015.9
20260503215528 17 297 6.4 14.5 0.00 0.00 0.00 36 1016.4
20260503215507 17 293 8.0 14.5 0.00 0.00 0.00 35 1015.9
20260503215027 17 16 6.4 14.5 0.00 0.00 0.00 35 1016.3
20260503215002 17 286 8.0 14.5 0.00 0.00 0.00 35 1015.9
20260503214526 17 293 6.4 12.9 0.00 0.00 0.00 34 1016.4
20260503214522 17 281 6.4 12.9 0.00 0.00 0.00 33 1015.9
20260503214026 17 252 4.8 11.3 0.00 0.00 0.00 35 1016.4
20260503214007 17 301 4.8 11.3 0.00 0.00 0.00 35 1015.9
20260503213526 17 337 0.0 19.3 0.00 0.00 0.00 35 1016.3
20260503213507 17 36 0.0 19.3 0.00 0.00 0.00 35 1015.9
20260503213027 17 339 6.4 19.3 0.00 0.00 0.00 35 1016.3
20260503213012 17 356 6.4 19.3 0.00 0.00 0.00 34 1015.9
20260503212525 17 353 4.8 16.1 0.00 0.00 0.00 35 1016.3
20260503212508 17 28 4.8 16.1 0.00 0.00 0.00 35 1015.9
20260503212026 17 335 4.8 12.9 0.00 0.00 0.00 35 1016.3
20260503212005 17 297 4.8 12.9 0.00 0.00 0.00 35 1015.9
20260503211525 17 303 1.6 14.5 0.00 0.00 0.00 36 1016.3
20260503211513 17 302 3.2 17.7 0.00 0.00 0.00 35 1015.9
20260503211029 17 342 3.2 19.3 0.00 0.00 0.00 37 1016.3
20260503211007 17 295 3.2 19.3 0.00 0.00 0.00 35 1015.9
20260503210529 17 325 8.0 19.3 0.00 0.00 0.00 36 1016.2
20260503210503 17 326 8.0 19.3 0.00 0.00 0.00 35 1015.9
20260503210037 17 287 8.0 16.1 0.00 0.00 0.00 36 1015.8
20260503210024 17 327 6.4 16.1 0.00 0.00 0.00 36 1016.3
20260503205524 17 323 6.4 16.1 0.00 0.00 0.00 35 1016.1
20260503205509 17 32 8.0 16.1 0.00 0.00 0.00 34 1015.7
20260503205024 17 298 4.8 22.5 0.00 0.00 0.00 37 1016.2
20260503205003 17 299 4.8 22.5 0.00 0.00 0.00 36 1015.7
20260503204528 17 80 3.2 22.5 0.00 0.00 0.00 37 1016.2
20260503204516 17 322 3.2 22.5 0.00 0.00 0.00 37 1015.8
20260503204024 17 329 6.4 14.5 0.00 0.00 0.00 35 1016.3
20260503204013 17 285 6.4 14.5 0.00 0.00 0.00 34 1015.8
20260503203525 17 272 3.2 14.5 0.00 0.00 0.00 36 1016.3
20260503203502 17 306 4.8 14.5 0.00 0.00 0.00 35 1015.8
20260503203024 17 292 4.8 19.3 0.00 0.00 0.00 36 1016.2
20260503203015 17 279 4.8 19.3 0.00 0.00 0.00 37 1015.9
20260503202522 17 311 8.0 19.3 0.00 0.00 0.00 37 1016.2
20260503202508 17 307 9.7 19.3 0.00 0.00 0.00 35 1016.0
20260503202022 17 289 4.8 16.1 0.00 0.00 0.00 36 1016.3
20260503202004 17 309 4.8 12.9 0.00 0.00 0.00 35 1015.9
20260503201524 17 339 3.2 14.5 0.00 0.00 0.00 36 1016.0
20260503201521 17 302 3.2 14.5 0.00 0.00 0.00 36 1016.3
20260503201020 17 297 3.2 14.5 0.00 0.00 0.00 37 1016.3
20260503201009 17 290 4.8 14.5 0.00 0.00 0.00 37 1016.0
20260503200519 16 31 3.2 22.5 0.00 0.00 0.00 40 1016.3
20260503200505 16 10 4.8 22.5 0.00 0.00 0.00 38 1016.0
20260503200020 16 292 8.0 22.5 0.00 0.00 0.00 38 1016.5
20260503200017 16 267 9.7 22.5 0.00 0.00 0.00 38 1016.1
20260503195519 16 299 11.3 19.3 0.00 0.00 0.00 39 1016.5
20260503195507 16 290 11.3 19.3 0.00 0.00 0.00 39 1016.1
20260503195018 16 304 9.7 19.3 0.00 0.00 0.00 37 1016.4
20260503195006 16 308 11.3 19.3 0.00 0.00 0.00 37 1016.1
20260503194519 17 314 8.0 19.3 0.00 0.00 0.00 40 1016.2
20260503194517 17 287 8.0 19.3 0.00 0.00 0.00 38 1016.4
20260503194016 16 318 6.4 24.1 0.00 0.00 0.00 39 1016.5
20260503194007 16 322 8.0 24.1 0.00 0.00 0.00 38 1016.3
20260503193519 16 303 6.4 24.1 0.00 0.00 0.00 38 1016.6
20260503193504 16 290 6.4 24.1 0.00 0.00 0.00 37 1016.2
20260503193034 16 268 8.0 16.1 0.00 0.00 0.00 39 1016.6
20260503193022 16 299 9.7 16.1 0.00 0.00 0.00 38 1016.4
20260503192515 16 336 4.8 19.3 0.00 0.00 0.00 40 1016.7
20260503192504 16 328 4.8 22.5 0.00 0.00 0.00 39 1016.4
20260503192017 16 43 4.8 22.5 0.00 0.00 0.00 42 1016.9
20260503192005 16 96 4.8 22.5 0.00 0.00 0.00 40 1016.5
20260503191522 16 301 9.7 22.5 0.00 0.00 0.00 38 1016.6
20260503191515 16 309 9.7 22.5 0.00 0.00 0.00 39 1016.9
20260503191016 16 311 12.9 20.9 0.00 0.00 0.00 39 1016.9
20260503191003 16 296 14.5 20.9 0.00 0.00 0.00 38 1016.6
20260503190513 16 300 3.2 19.3 0.00 0.00 0.00 41 1017.0
20260503190506 16 281 3.2 19.3 0.00 0.00 0.00 41 1016.7
20260503190023 16 309 8.0 19.3 0.00 0.00 0.00 41 1016.8
20260503190014 16 290 8.0 19.3 0.00 0.00 0.00 39 1017.1
20260503185512 16 309 4.8 24.1 0.00 0.00 0.00 41 1017.2
20260503185504 16 300 6.4 24.1 0.00 0.00 0.00 41 1016.9
20260503185017 16 282 9.7 24.1 0.00 0.00 0.00 41 1017.3
20260503185009 16 307 11.3 24.1 0.00 0.00 0.00 40 1016.9
20260503184527 16 328 16.1 24.1 0.00 0.00 0.00 39 1016.8
20260503184520 16 299 14.5 24.1 0.00 0.00 0.00 40 1017.1
20260503184012 16 303 4.8 17.7 0.00 0.00 0.00 40 1017.1
20260503184006 16 304 4.8 17.7 0.00 0.00 0.00 40 1016.9
20260503183512 16 292 6.4 17.7 0.00 0.00 0.00 41 1017.1
20260503183508 16 346 8.0 17.7 0.00 0.00 0.00 40 1017.0
20260503183025 16 30 6.4 16.1 0.00 0.00 0.00 40 1017.0
20260503183012 16 294 6.4 16.1 0.00 0.00 0.00 41 1017.2
20260503182509 15 313 4.8 25.7 0.00 0.00 0.00 43 1017.2
20260503182503 15 342 6.4 25.7 0.00 0.00 0.00 43 1017.0
20260503182009 15 342 3.2 25.7 0.00 0.00 0.00 42 1017.1
20260503182007 15 327 4.8 25.7 0.00 0.00 0.00 41 1017.0
20260503181521 15 2 11.3 19.3 0.00 0.00 0.00 41 1017.0
20260503181509 15 4 11.3 20.9 0.00 0.00 0.00 41 1017.2
20260503181009 15 33 4.8 17.7 0.00 0.00 0.00 43 1017.3
20260503181004 15 344 4.8 17.7 0.00 0.00 0.00 43 1016.9
20260503180508 15 302 9.7 22.5 0.00 0.00 0.00 41 1017.3
20260503180504 15 319 11.3 22.5 0.00 0.00 0.00 41 1017.0
20260503180026 15 298 6.4 27.4 0.00 0.00 0.00 42 1016.8
20260503180016 15 329 4.8 27.4 0.00 0.05 0.00 42 1017.1
20260503175508 15 292 11.3 27.4 0.00 0.05 0.00 42 1017.4
20260503175503 15 297 11.3 27.4 0.00 0.00 0.00 41 1017.0
20260503175013 15 310 8.0 30.6 0.00 0.00 0.00 43 1017.0
20260503175007 15 308 6.4 30.6 0.00 0.05 0.00 43 1017.3
20260503174525 15 314 14.5 30.6 0.00 0.03 0.00 43 1017.0
20260503174506 15 346 14.5 30.6 0.00 0.05 0.00 43 1017.4
20260503174006 15 303 11.3 19.3 0.00 0.05 0.00 41 1017.5
20260503174003 15 314 11.3 19.3 0.00 0.03 0.00 41 1017.1
20260503173505 15 68 4.8 24.1 0.00 0.03 0.00 42 1017.1
20260503173024 15 46 8.0 24.1 0.00 0.03 0.00 43 1017.2
20260503173016 15 327 8.0 24.1 0.00 0.05 0.00 44 1017.6
20260503172506 15 284 8.0 25.7 0.00 0.05 0.00 43 1017.6
20260503172013 14 316 11.3 27.4 0.00 0.05 0.00 42 1017.1
20260503172003 14 300 9.7 27.4 0.00 0.05 0.00 43 1017.6
20260503171523 14 336 8.0 27.4 0.00 0.05 0.00 45 1017.2
20260503171507 14 301 8.0 27.4 0.00 0.05 0.00 45 1017.6
20260503171007 14 304 14.5 25.7 0.00 0.05 0.00 44 1017.2
20260503171003 14 289 12.9 25.7 0.00 0.05 0.00 44 1017.7
20260503170508 14 307 9.7 22.5 0.00 0.05 0.00 44 1017.3
20260503170503 14 300 8.0 22.5 0.00 0.05 0.00 44 1017.8
20260503151007 13 319 4.8 22.5 0.00 0.18 0.00 45 1017.6
20260503150555 12 332 9.7 22.5 0.00 0.18 0.00 46 1018.2
20260503150503 13 306 11.3 22.5 0.00 0.18 0.00 43 1017.6
20260503131042 12 318 1.6 17.7 0.00 0.20 0.00 53 1017.7
20260503131004 12 332 1.6 17.7 0.00 0.20 0.00 52 1017.4
20260503130542 11 34 4.8 17.7 0.00 0.20 0.00 52 1017.7
20260503130506 11 4 4.8 17.7 0.00 0.20 0.00 52 1017.4
20260503110625 10 308 4.8 17.7 0.00 0.20 0.00 57 1016.4
20260503110510 10 60 8.0 17.7 0.00 0.20 0.00 56 1016.1
20260503090508 11 333 1.6 11.3 0.00 0.20 0.00 65 1013.7
20260503081535 10 323 0.0 6.4 0.00 0.20 0.00 70 1013.3
20260503081502 10 320 0.0 6.4 0.00 0.20 0.00 71 1013.6
20260503081007 10 332 1.6 6.4 0.00 0.20 0.00 70 1013.2
20260503081002 10 329 1.6 6.4 0.00 0.20 0.00 71 1013.5
20260503080512 10 294 3.2 6.4 0.00 0.20 0.00 71 1013.0
20260503080501 10 291 1.6 6.4 0.00 0.20 0.00 71 1013.4
20260503072559 9 315 0.0 4.8 0.00 0.20 0.00 78 1013.1
20260503072508 9 318 0.0 4.8 0.00 0.20 0.00 78 1012.8
20260503072057 9 305 0.0 3.2 0.00 0.20 0.00 78 1013.0
20260503072006 9 309 1.6 3.2 0.00 0.20 0.00 78 1012.8
20260503071605 9 308 0.0 3.2 0.00 0.20 0.00 78 1013.0
20260503071534 9 311 0.0 3.2 0.00 0.20 0.00 77 1012.7
20260503071055 9 278 0.0 3.2 0.00 0.20 0.00 77 1012.9
20260503071014 9 281 0.0 3.2 0.00 0.20 0.00 76 1012.6
20260503070555 9 299 0.0 3.2 0.00 0.20 0.00 76 1012.9
20260503070507 9 300 0.0 1.6 0.00 0.20 0.00 75 1012.5
20260503070112 9 296 0.0 1.6 0.00 0.20 0.00 75 1012.8
20260503060112 10 289 0.0 1.6 0.00 0.20 0.00 72 1012.4
20260503055049 10 312 0.0 1.6 0.00 0.20 0.00 71 1012.4
20260503055008 10 315 0.0 1.6 0.00 0.20 0.00 71 1012.1
20260503054545 10 316 0.0 1.6 0.00 0.20 0.00 70 1012.4
20260503054514 10 319 0.0 1.6 0.00 0.20 0.00 70 1012.0
20260503054044 11 316 0.0 4.8 0.00 0.20 0.00 69 1012.5
20260503054006 11 319 0.0 4.8 0.00 0.20 0.00 69 1012.1
20260503053542 11 285 0.0 4.8 0.00 0.20 0.00 69 1012.5
20260503053508 11 295 0.0 6.4 0.00 0.20 0.00 68 1012.2
20260503053042 11 287 0.0 6.4 0.00 0.20 0.00 68 1012.7
20260503053006 11 285 1.6 6.4 0.00 0.20 0.00 68 1012.3
20260503052540 11 305 1.6 6.4 0.00 0.20 0.00 68 1012.7
20260503052509 11 275 1.6 6.4 0.00 0.20 0.00 68 1012.3
20260503052040 11 299 0.0 9.7 0.00 0.20 0.00 67 1012.7
20260503052010 11 302 0.0 9.7 0.00 0.20 0.00 67 1012.3
20260503051538 11 301 1.6 9.7 0.00 0.20 0.00 67 1012.8
20260503051508 11 304 3.2 9.7 0.00 0.20 0.00 66 1012.4
20260503051038 11 315 1.6 9.7 0.00 0.20 0.00 67 1012.8
20260503051006 11 311 3.2 9.7 0.00 0.20 0.00 66 1012.4
20260503050538 11 312 1.6 8.0 0.00 0.20 0.00 67 1012.7
20260503050507 11 335 1.6 8.0 0.00 0.20 0.00 67 1012.3
20260503050037 11 304 1.6 8.0 0.00 0.20 0.00 67 1012.7
20260503050008 11 305 3.2 8.0 0.00 0.20 0.00 66 1012.3
20260503045536 11 302 1.6 6.4 0.00 0.20 0.00 68 1012.7
20260503045506 12 305 1.6 6.4 0.00 0.20 0.00 67 1012.3
20260503045035 12 290 1.6 6.4 0.00 0.20 0.00 68 1012.7
20260503045015 12 293 3.2 6.4 0.00 0.20 0.00 67 1012.4
20260503044540 12 311 1.6 6.4 0.00 0.20 0.00 68 1012.8
20260503044523 12 305 1.6 4.8 0.00 0.20 0.00 68 1012.4
20260503044035 12 325 0.0 4.8 0.00 0.20 0.00 69 1012.7
20260503044005 12 300 1.6 4.8 0.00 0.20 0.00 68 1012.4
20260503043534 12 312 1.6 4.8 0.00 0.20 0.00 69 1012.8
20260503043502 12 285 3.2 4.8 0.00 0.20 0.00 68 1012.3
20260503043033 12 290 0.0 6.4 0.00 0.20 0.00 69 1012.7
20260503043014 12 293 1.6 8.0 0.00 0.20 0.00 68 1012.3
20260503042532 12 295 1.6 8.0 0.00 0.20 0.00 69 1012.7
20260503042505 12 306 1.6 8.0 0.00 0.20 0.00 68 1012.3
20260503042032 12 294 1.6 8.0 0.00 0.20 0.00 68 1012.9
20260503042002 12 310 1.6 8.0 0.00 0.20 0.00 68 1012.4
20260503041532 12 325 1.6 8.0 0.00 0.20 0.00 68 1012.8
20260503041516 12 298 1.6 8.0 0.00 0.20 0.00 68 1012.4
20260503041032 12 304 3.2 8.0 0.00 0.20 0.00 68 1013.0
20260503041005 12 288 4.8 8.0 0.00 0.20 0.00 68 1012.5
20260503040529 12 327 0.0 6.4 0.00 0.20 0.00 68 1012.8
20260503040504 12 331 1.6 6.4 0.00 0.20 0.00 68 1012.2
20260503040031 12 299 3.2 6.4 0.00 0.20 0.20 68 1012.9
20260503040014 12 298 3.2 6.4 0.00 0.20 0.00 67 1012.4
20260503035529 12 290 0.0 6.4 0.00 0.20 0.20 68 1012.9
20260503035506 12 288 1.6 6.4 0.00 0.20 0.20 67 1012.4
20260503035027 12 302 3.2 6.4 0.00 0.20 0.20 67 1012.9
20260503035003 12 311 3.2 6.4 0.00 0.20 0.20 67 1012.5
20260503034527 12 295 0.0 3.2 0.00 0.20 0.20 68 1012.8
20260503034521 12 302 0.0 3.2 0.00 0.20 0.20 67 1012.3
20260503034026 12 308 0.0 8.0 0.00 0.20 0.20 67 1012.6
20260503034007 12 303 0.0 8.0 0.00 0.20 0.20 66 1012.2
20260503033526 12 318 0.0 8.0 0.00 0.20 0.20 67 1012.7
20260503033503 12 297 0.0 8.0 0.00 0.20 0.20 66 1012.3
20260503033026 12 300 0.0 4.8 0.00 0.20 0.20 66 1012.7
20260503033018 12 302 1.6 8.0 0.00 0.20 0.20 66 1012.2
20260503032526 12 299 1.6 8.0 0.00 0.20 0.20 67 1012.6
20260503032510 12 314 1.6 8.0 0.00 0.20 0.20 66 1012.2
20260503032026 12 310 1.6 6.4 0.00 0.20 0.20 67 1012.5
20260503032002 12 284 1.6 4.8 0.00 0.20 0.20 67 1012.1
20260503031527 12 295 0.0 4.8 0.00 0.20 0.20 67 1012.4
20260503031520 12 301 0.0 4.8 0.00 0.20 0.20 67 1012.0
20260503031026 12 287 1.6 4.8 0.00 0.20 0.20 67 1012.5
20260503031009 12 295 1.6 4.8 0.00 0.20 0.20 66 1012.2
20260503030525 12 318 0.0 4.8 0.00 0.20 0.20 66 1012.4
20260503030504 12 321 0.0 4.8 0.00 0.20 0.20 66 1012.1
20260503030026 12 38 0.0 3.2 0.00 0.20 0.20 66 1012.5
20260503030019 12 41 0.0 3.2 0.00 0.20 0.20 66 1012.2
20260503025525 12 307 0.0 3.2 0.00 0.20 0.20 65 1012.6
20260503025507 12 297 0.0 3.2 0.00 0.20 0.20 65 1012.3
20260503025025 12 350 0.0 1.6 0.00 0.20 0.20 65 1012.8
20260503025003 12 357 0.0 1.6 0.00 0.20 0.20 65 1012.3
20260503024526 12 278 0.0 1.6 0.00 0.20 0.20 66 1012.7
20260503024521 12 281 0.0 1.6 0.00 0.20 0.20 65 1012.3
20260503024025 12 335 0.0 1.6 0.00 0.20 0.20 65 1012.8
20260503024010 12 338 0.0 1.6 0.00 0.20 0.20 65 1012.4
20260503023524 12 252 0.0 1.6 0.00 0.20 0.20 65 1012.7
20260503023504 12 255 0.0 1.6 0.00 0.20 0.20 64 1012.3
20260503023024 12 353 0.0 1.6 0.00 0.20 0.20 64 1012.3
20260503022524 12 324 0.0 4.8 0.00 0.20 0.20 64 1012.6
20260503022509 12 327 0.0 4.8 0.00 0.20 0.20 64 1012.3
20260503022031 12 313 0.0 4.8 0.00 0.20 0.20 64 1012.7
20260503022010 12 352 1.6 4.8 0.00 0.20 0.20 64 1012.3
20260503021525 12 335 0.0 3.2 0.00 0.20 0.20 64 1012.6
20260503021026 12 349 0.0 6.4 0.00 0.20 0.20 64 1012.7
20260503021010 12 352 0.0 6.4 0.00 0.20 0.20 63 1012.4
20260503020524 12 221 1.6 6.4 0.00 0.20 0.20 64 1012.7
20260503020508 12 286 1.6 6.4 0.00 0.20 0.20 63 1012.3
20260503020024 12 311 0.0 6.4 0.00 0.20 0.20 64 1012.7
20260503020022 12 305 0.0 6.4 0.00 0.20 0.20 63 1012.4
20260503015524 12 299 1.6 6.4 0.00 0.20 0.20 64 1012.7
20260503015510 12 6 1.6 6.4 0.00 0.20 0.20 63 1012.3
20260503015023 12 326 1.6 9.7 0.00 0.20 0.20 64 1012.6
20260503015005 12 302 1.6 9.7 0.00 0.20 0.20 63 1012.3
20260503014526 12 58 1.6 9.7 0.00 0.20 0.20 63 1012.3
20260503014523 12 302 0.0 9.7 0.00 0.20 0.20 63 1012.6
20260503014023 12 353 0.0 9.7 0.00 0.20 0.20 63 1012.6
20260503014010 12 338 0.0 9.7 0.00 0.20 0.20 62 1012.2
20260503013523 12 340 1.6 4.8 0.00 0.20 0.20 63 1012.4
20260503013503 12 331 1.6 4.8 0.00 0.20 0.20 62 1012.1
20260503013033 12 4 0.0 4.8 0.00 0.20 0.20 62 1012.0
20260503013026 12 303 0.0 4.8 0.00 0.20 0.20 63 1012.3
20260503012523 12 333 0.0 9.7 0.00 0.20 0.20 63 1012.2
20260503012504 12 336 0.0 9.7 0.00 0.20 0.20 63 1011.8
20260503012023 12 22 1.6 9.7 0.00 0.20 0.20 63 1012.3
20260503012008 12 25 1.6 9.7 0.00 0.20 0.20 62 1011.8
20260503011530 12 357 1.6 6.4 0.00 0.20 0.20 62 1011.8
20260503011524 12 355 0.0 6.4 0.00 0.20 0.20 63 1012.3
20260503011022 12 351 0.0 6.4 0.00 0.20 0.20 63 1012.3
20260503011004 12 31 0.0 6.4 0.00 0.20 0.20 62 1012.0
20260503010522 12 326 0.0 3.2 0.00 0.20 0.20 63 1012.4
20260503010505 12 329 0.0 8.0 0.00 0.20 0.20 62 1012.0
20260503010024 12 332 0.0 8.0 0.00 0.20 0.20 62 1012.0
20260503010022 12 15 0.0 8.0 0.00 0.20 0.20 63 1012.4
20260503005522 12 318 0.0 8.0 0.00 0.20 0.20 63 1012.3
20260503005502 12 320 1.6 8.0 0.00 0.20 0.20 62 1011.9
20260503005025 12 351 1.6 6.4 0.00 0.20 0.20 62 1012.3
20260503005007 12 354 1.6 9.7 0.00 0.20 0.20 62 1011.9
20260503004527 12 72 1.6 17.7 0.00 0.20 0.20 62 1011.9
20260503004522 12 70 0.0 17.7 0.00 0.20 0.20 63 1012.3
20260503004018 12 18 4.8 17.7 0.00 0.20 0.20 62 1012.2
20260503004002 12 332 4.8 17.7 0.00 0.20 0.20 62 1011.8
20260503003518 12 308 1.6 6.4 0.00 0.20 0.20 63 1012.0
20260503003505 12 27 1.6 6.4 0.00 0.20 0.20 62 1011.6
20260503003025 12 354 0.0 3.2 0.00 0.20 0.20 63 1011.7
20260503003019 12 342 0.0 3.2 0.00 0.20 0.20 64 1012.1
20260503002519 12 39 0.0 8.0 0.00 0.20 0.20 64 1012.0
20260503002505 12 293 0.0 8.0 0.00 0.20 0.20 63 1011.6
20260503002017 12 351 1.6 8.0 0.00 0.20 0.20 63 1011.9
20260503002008 12 311 1.6 8.0 0.00 0.20 0.20 62 1011.5
20260503001527 12 348 1.6 12.9 0.00 0.20 0.20 63 1011.4
20260503001518 12 346 1.6 12.9 0.00 0.20 0.20 63 1011.8
20260503001017 12 318 0.0 12.9 0.00 0.20 0.20 63 1011.8
20260503001007 12 319 1.6 12.9 0.00 0.20 0.20 63 1011.4
20260503000518 12 330 4.8 12.9 0.00 0.20 0.20 63 1011.8
20260503000505 12 334 4.8 12.9 0.00 0.20 0.20 62 1011.3